Regional Weather Roundup
Issued by NWS Memphis, TN

Home | Current Version | Previous Version | Text Only | Print | Product List | Glossary On
Versions: 1 2 3 4 5 6 7 8 9 10 11 12 13 14 15 16 17 18 19 20 21 22 23 24 25 26 27 28 29 30 31 32 33 34 35 36 37 38 39 40 41 42 43 44 45 46 47 48 49 50
000
ASUS44 KMEG 291710
RWRMEG
MEMPHIS CWA HOURLY WEATHER ROUNDUP
NATIONAL WEATHER SERVICE MEMPHIS TN
1200 PM CDT SUN MAR 29 2015

...WEST TENNESSEE...

CITY           SKY/WX    TMP DP  RH WIND       PRES   REMARKS
MEMPHIS INTL   CLOUDY    53  33  46 S14G20    30.22F
NWS MEMPHIS      N/A     51 N/A N/A MISG        N/A
JACKSON        PTSUNNY   54  24  31 S12G18    30.24F
LEXINGTON      SUNNY     54  18  24 S12       30.25F
SAVANNAH       SUNNY     54  25  32 S12       30.28F
DYERSBURG      CLOUDY   N/A N/A N/A S12G17    30.23F
UNION CITY     SUNNY     54  30  40 S15       30.21F
PARIS          MOSUNNY   54  21  28 S10       30.24F


...EASTERN ARKANSAS...

CITY           SKY/WX    TMP DP  RH WIND       PRES   REMARKS
JONESBORO      CLOUDY    47  35  63 S14       30.18F
WEST MEMPHIS   CLOUDY    52  38  58 S16       30.20F
BATESVILLE     MOSUNNY   52  37  58 S10       30.14F
NEWPORT        CLOUDY    50  39  65 S22       30.18F
BLYTHEVILLE    CLOUDY    52  33  48 S17       30.20F
SEARCY         CLOUDY    54  43  66 S14       30.17F
STUTTGART      CLOUDY    55  43  62 S20       30.17F
PINE BLUFF     MOSUNNY   60  49  66 S14       30.16F
MONTICELLO     SUNNY     62  49  62 S12       30.17F


...NORTH MISSISSIPPI...

CITY           SKY/WX    TMP DP  RH WIND       PRES   REMARKS
TUPELO         CLOUDY    50  28  42 S10       30.30F
OXFORD         CLOUDY    50  32  50 SE12G18   30.27F
OLIVE BRANCH   CLOUDY    48  34  57 S12G21    30.23F
TUNICA         PTSUNNY   52  37  58 S18       30.22F
CLARKSDALE     CLOUDY    55  41  58 S16       30.23F
CORINTH        CLOUDY    52  25  35 S16       30.27F
GREENWOOD      CLOUDY    61  39  44 SE14      30.25F
COLUMBUS       CLOUDY    52  28  39 SE12      30.31F
STARKVILLE     CLOUDY    54  34  47 S10G16    30.31F
GOLDEN TRIANGL CLOUDY    54  30  40 S14       30.31F


...SOUTHEAST MISSOURI...

CITY           SKY/WX    TMP DP  RH WIND       PRES   REMARKS
WEST PLAINS    CLOUDY    48  34  58 S15       30.11F
POPLAR BLUFF   CLOUDY    50  32  50 S12G18    30.17F
CAPE GIRARDEAU SUNNY     51  31  46 S17       30.19F


...NORTHWEST ALABAMA...

CITY           SKY/WX    TMP DP  RH WIND       PRES   REMARKS
MUSCLE SHOALS  SUNNY     55  22  27 S7G16     30.31F


...MIDDLE TENNESSEE...

CITY           SKY/WX    TMP DP  RH WIND       PRES   REMARKS
NASHVILLE      SUNNY     54  14  20 S15G23    30.28F
CLARKSVILLE    SUNNY     53  17  24 S10       30.25F
COLUMBIA       SUNNY     54  25  32 S9        30.26F


...WESTERN KENTUCKY...

CITY           SKY/WX    TMP DP  RH WIND       PRES   REMARKS
PADUCAH        MOSUNNY   54  24  31 S12       30.21F
FORT CAMPBELL  SUNNY     53  15  22 SE10      30.24F


...CENTRAL ARKANSAS...

CITY           SKY/WX    TMP DP  RH WIND       PRES   REMARKS
LITTLE ROCK    CLOUDY    56  43  61 SE6       30.15F


SKY/WX REPORTED AS FAIR MEANS FEW OR NO CLOUDS BELOW
12 THOUSAND FEET.



USA.gov is the U.S. government's official web portal to all federal, state and local government web resources and services.